Regional Weather Roundup
Issued by NWS Sterling, VA

Home | Current Version | Previous Version | Text Only | Print | Product List | Glossary Off
Versions: 1 2 3 4 5 6 7 8 9 10 11 12 13 14 15 16 17 18 19 20 21 22 23 24 25 26 27 28 29 30 31 32 33 34 35 36 37 38 39 40 41 42 43 44 45 46 47 48 49 50

251
ASUS41 KLWX 250811
RWRLWX

REGIONAL WEATHER ROUNDUP
NATIONAL WEATHER SERVICE BALTIMORE MD/WASHINGTON DC
400 AM EDT MON SEP 25 2017

Note: "FAIR" indicates few or no clouds below 12,000 feet
with no significant weather and/or obstructions to visibility.
 TC=TEMPERATURE CELSIUS

 * =Non NWS site. Station does not report precipitation (e.g. rain,
    snow, etc.), thunder, or fog.

DCZ001-MDZ009-015-VAZ040>042-051-053>054-250900-
WASHINGTON METRO

CITY           SKY/WX    TMP DP  RH WIND       PRES   REMARKS
WASHINGTON NAT PTCLDY    72  68  87 N3        30.02F
DULLES         CLEAR     65  65 100 CALM      30.03F
ANDREWS AFB    CLEAR     64  63  96 CALM      30.02S
FT BELVOIR     CLEAR     64  63  97 CALM      30.02F
QUANTICO       CLEAR     68  67  96 NW5       30.03F
COLLEGE PARK*  CLEAR     65  64  97 CALM      30.02S
LEESBURG*      CLEAR     64  64 100 CALM      30.05S
MANASSAS*      CLEAR     63  63 100 CALM      30.03F FOG
GAITHERSBURG*  CLEAR     64  63  96 CALM      30.05S

$$

MDZ006>007-011-014-250900-
BALTIMORE METRO

CITY           SKY/WX    TMP DP  RH WIND       PRES   REMARKS
BWI AIRPORT    PTCLDY    66  65  96 CALM      30.02S
MD SCIENCE CTR   N/A     75  67  76 MISG      30.02S
MARTIN STATE   CLEAR     68  68 100 CALM      30.03S
ANNAPOLIS      CLEAR     73  73 100 CALM      30.01S
FORT MEADE*    CLEAR     61  61 100 CALM      30.05S

$$

MDZ012-015-019>023-250900-
MARYLAND EASTERN SHORE

CITY           SKY/WX    TMP DP  RH WIND       PRES   REMARKS
OCEAN CITY     CLEAR     62  62 100 NW5       30.02S
SALISBURY      PTCLDY    62  61  96 CALM      30.01F
CAMBRIDGE*     CLEAR     63  63 100 CALM      30.01F
EASTON*        CLEAR     67  64  91 CALM      30.05S

$$

MDZ017>025-250900-
SOUTHERN MARYLAND

CITY           SKY/WX    TMP DP  RH WIND       PRES   REMARKS
PATUXENT RIVER CLEAR     64  64 100 CALM      30.00F
ST INIGOES     CLEAR     63  63 100 CALM      30.00S
LEONARDTOWN*     N/A     64  64 100 CALM      30.03S VSB 1

$$

MDZ003>005-250900-
NORTH CENTRAL MARYLAND

CITY           SKY/WX    TMP DP  RH WIND       PRES   REMARKS
FREDERICK*     FOG       63  63 100 CALM      30.07S VSB 3/4
HAGERSTOWN APT CLEAR     70  66  87 CALM      30.06S
WESTMINSTER*   CLEAR     68  64  88 CALM      30.06S

$$

MDZ501>502-250900-
WESTERN MARYLAND

CITY           SKY/WX    TMP DP  RH WIND       PRES   REMARKS
OAKLAND*       CLEAR     63  59  88 E6        30.14F
CUMBERLAND*    CLEAR     64  64 100 CALM      30.12S

$$

VAZ025>031-250900-
SHENANDOAH VALLEY

CITY           SKY/WX    TMP DP  RH WIND       PRES   REMARKS
WINCHESTER*    CLEAR     61  59  94 CALM      30.06F
FRONT ROYAL*   CLEAR     63  63 100 CALM      30.05F
LURAY*         CLEAR     61  61 100 CALM      30.07F
NEW MARKET*    PTCLDY    58  56  96 CALM      30.07F
STAUNTON*      CLEAR     57  56  97 CALM      30.11S FOG
WAYNESBORO*    PTCLDY    61  61 100 CALM      30.10S

$$

WVZ021-048>050-054>055-250900-
EASTERN WEST VIRGINIA PANHANDLE

CITY           SKY/WX    TMP DP  RH WIND       PRES   REMARKS
MARTINSBURG    CLEAR     62  60  93 CALM      30.05S FOG
PETERSBURG*    PTCLDY    61  60  98 CALM      30.10S FOG

$$

VAZ036>039-050-250900-
CENTRAL FOOTHILLS

CITY           SKY/WX    TMP DP  RH WIND       PRES   REMARKS
CHARLOTTESVILL CLEAR     67  64  90 CALM      30.04F
CULPEPER*      CLEAR     66  65  97 CALM      30.04F
ORANGE*        CLEAR     63  61  94 CALM      30.04S
GORDONSVILLE*  PTCLDY    63  63 100 CALM      30.03S
WARRENTON*     FOG       60  57  90 CALM      30.03S VSB 1/2

$$

VAZ055>057-250900-
NORTH AND CENTRAL PIEDMONT

CITY           SKY/WX    TMP DP  RH WIND       PRES   REMARKS
FREDERICKSBRG* CLEAR     65  65 100 CALM      30.01F
STAFFORD*      CLEAR     62  62 100 CALM      30.06F FOG

$$

NCZ024-NYZ072-PAZ021-071-VAZ022-071-250900-
OTHER REGIONAL OBSERVATIONS

CITY           SKY/WX    TMP DP  RH WIND       PRES   REMARKS
NEW YORK CITY  CLEAR     74  65  73 NE3       30.04S
PHILADELPHIA   PTCLDY    71  67  87 S3        30.02S
PITTSBURGH     MOCLDY    67  64  90 CALM      30.08F
ROANOKE        PTCLDY    64  62  93 CALM      30.09S
RICHMOND       CLEAR     65  63  93 N7        30.00F
RALEIGH        MOCLDY    66  61  84 CALM      30.00R

$$

ANZ530>537-250900-
MARINE OBSERVATIONS

STATION/POSITION TIME  TEMP    WIND        PRES
                       AIR SEA DIR/SP/G
                 (UTC) (F)     (DEG/KT/KT) (MB)
THOMAS PT LIGHT  0800   75 77  350/  2/  2   N/A
BALT KEY BRIDGE  0742   74      10/  3/  3 1016.3F
COVE POINT       0742   75      50/  3/  4 1016.8F
LEWISETTA        0742   76 78   60/  5/  8 1015.8F
SOLOMONS ISLAND  0742   71 77  330/  4/  4 1015.7F
PINEY POINT      0742           50/  4/  5   N/A

$$





USA.gov is the U.S. government's official web portal to all federal, state and local government web resources and services.